[[[{"header":{"parameterUnit":"kt","parameterCategory":2,"dx":1,"dy":1,"la1":30.253999710083008,"la2":30.299108505249023,"lo1":-89.0895004272461,"lo2":-89.04439544677734,"nx":28,"ny":28,"refTime":"2022-09-27T21:00:00:Z","depth":0,"parameterNumber":1,"parameterNumberName":"U-component_of_WINDS"},"data":[-7.8861,-7.8959,-7.8929,-7.9027,-7.9017,-7.9079,-7.9092,-7.9105,-7.9107,-7.9178,-7.9213,-7.9193,-7.9185,-7.922,-7.9257,-7.9247,-7.9265,-7.9321,-7.93,-7.9075,-7.9041,-7.901,-7.8984,-7.9325,-7.9326,-7.9538,-7.954,-7.9542,-7.8697,-7.8688,-7.8732,-7.8753,-7.879,-7.8717,-7.8729,-7.8764,-7.8822,-7.8826,-7.8859,-7.8919,-7.8962,-7.8934,-7.897,-7.9016,-7.8984,-7.9028,-7.9024,-7.9024,-7.8782,-7.8755,-7.9053,-7.9053,-7.9053,-7.9053,-7.9053,-7.9053,-7.8392,-7.8452,-7.8447,-7.8494,-7.8496,-7.8511,-7.8563,-7.8537,-7.8579,-7.8613,-7.8569,-7.8634,-7.8632,-7.8662,-7.8664,-7.8714,-7.8659,-7.8698,-7.8708,-7.8719,-7.8736,-7.8434,-7.8718,-7.8717,-7.8716,-7.8716,-7.8715,0,-7.8159,-7.813,-7.8169,-7.82,-7.8232,-7.8253,-7.8267,-7.8298,-7.8225,-7.8264,-7.8316,-7.8341,-7.839,-7.8436,-7.8463,-7.8457,-7.8387,-7.8376,-7.8402,-7.8426,-7.8443,-7.8435,-7.8042,-7.8368,-7.8365,-7.8363,-7.8361,-7.836,-7.785,-7.7923,-7.7904,-7.7935,-7.7935,-7.7988,-7.8012,-7.7942,-7.7972,-7.7979,-7.8036,-7.808,-7.8112,-7.8201,-7.817,-7.8207,-7.8173,-7.8301,-7.8178,-7.8197,-7.8176,-7.8173,-7.818,-7.8327,-7.8331,-7.8334,-7.8337,0,-7.7679,-7.7628,-7.7732,-7.7705,-7.77,-7.7781,-7.7758,-7.7815,-7.7782,-7.7857,-7.787,-7.782,-7.7873,-7.7819,-7.7869,-7.784,-7.7973,-7.7938,-7.7973,-7.7963,-7.8073,-7.8064,-7.8437,-7.8482,-7.8127,-7.813,-7.8133,0,-7.7395,-7.7495,-7.7414,-7.7477,-7.7585,-7.7511,-7.762,-7.7602,-7.7599,-7.7657,-7.7567,-7.7623,-7.7546,-7.7595,-7.7552,-7.7651,-7.766,-7.7644,-7.7632,-7.7653,-7.7655,-7.7668,-7.7652,-7.7599,-7.7598,-7.7596,-7.7594,0,-7.7133,-7.7206,-7.7308,-7.7316,-7.7297,-7.7347,-7.7341,-7.7337,-7.7362,-7.7386,-7.7402,-7.7435,-7.7454,-7.7482,-7.7426,-7.7345,-7.7546,-7.7423,-7.7529,-7.7531,-7.7578,-7.7576,-7.7918,-7.7592,-7.7592,-7.7591,-7.759,0,-7.6897,-7.6922,-7.7077,-7.7059,-7.7081,-7.7148,-7.7176,-7.7221,-7.7223,-7.7199,-7.7218,-7.7151,-7.7233,-7.7115,-7.7226,-7.7136,-7.716,-7.7151,-7.7158,-7.7163,-7.7032,-7.7234,-7.7564,-7.7597,-7.7166,-7.7163,-7.716,0,-7.6611,-7.6754,-7.6691,-7.6841,-7.6899,-7.6793,-7.6866,-7.687,-7.6845,-7.6891,-7.6863,-7.6916,-7.6817,-7.6826,-7.6888,-7.6862,-7.6979,-7.6844,-7.6913,-7.6916,-7.6917,-7.722,-7.7283,-7.7497,-7.7114,-7.7118,-7.7122,0,-7.6383,-7.6358,-7.639,-7.6396,-7.6389,-7.6437,-7.6522,-7.6558,-7.6592,-7.6606,-7.6675,-7.6749,-7.6676,-7.6693,-7.6642,-7.671,-7.6897,-7.6624,-7.6623,-7.6676,-7.7086,-7.7145,-7.7181,-7.6849,-7.6854,-7.6858,-7.7085,0,-7.6039,-7.6103,-7.6185,-7.6202,-7.6231,-7.6321,-7.6263,-7.6301,-7.6248,-7.622,-7.632,-7.631,-7.6347,-7.6374,-7.6324,-7.6495,-7.6458,-7.6381,-7.6263,-7.6462,-7.6535,-7.6565,-7.6158,-7.6154,-7.6151,-7.6148,0,0,-7.5779,-7.587,-7.5798,-7.5877,-7.5897,-7.5785,-7.5887,-7.5893,-7.5909,-7.5926,-7.5859,-7.5961,-7.5956,-7.6085,-7.6142,-7.6157,-7.6183,-7.6115,-7.6367,-7.6392,-7.6415,-7.6494,-7.6526,-7.6143,-7.6141,-7.614,-7.6139,0,-7.5641,-7.5637,-7.5737,-7.574,-7.5742,-7.5706,-7.5731,-7.5713,-7.5699,-7.5797,-7.5704,-7.5757,-7.5842,-7.5848,-7.5863,-7.6098,-7.6026,-7.6114,-7.626,-7.6337,-7.6366,-7.6391,-7.6476,-7.6507,-7.6131,-7.6132,-7.6132,0,-7.5407,-7.5393,-7.5435,-7.5474,-7.5475,-7.5538,-7.5399,-7.5471,-7.5517,-7.5392,-7.5491,-7.5478,-7.5482,-7.561,-7.5666,-7.5607,-7.5886,-7.5788,-7.5806,-7.5812,-7.5883,-7.5918,-7.5949,-7.554,-7.5539,-7.5537,0,0,-7.5296,-7.5355,-7.5318,-7.5441,-7.5447,-7.5395,-7.5422,-7.5373,-7.5378,-7.5381,-7.5363,-7.5371,-7.5419,-7.5452,-7.5494,-7.5643,-7.5639,-7.5717,-7.5745,-7.5768,-7.5786,-7.5864,-7.5898,-7.553,-7.553,-7.553,0,0,-7.5243,-7.5205,-7.5151,-7.5285,-7.5293,-7.5266,-7.5343,-7.5276,-7.5308,-7.5291,-7.5212,-7.5211,-7.533,-7.5321,-7.5235,-7.5451,-7.5335,-7.5354,-7.5453,-7.5487,-7.5515,-7.5515,-7.5092,0,0,0,0,0,-7.5072,-7.5209,-7.5161,-7.5174,-7.5224,-7.5293,-7.5298,-7.5236,-7.5154,-7.5217,-7.5191,-7.5111,-7.5258,-7.518,-7.5195,-7.5292,-7.5441,-7.5457,-7.5472,-7.5634,-7.567,-7.5701,0,0,0,0,0,0,-7.5077,-7.5094,-7.5157,-7.5136,-7.5146,-7.5287,-7.5136,-7.5122,-7.5146,-7.513,-7.5118,-7.511,-7.5059,-7.5168,-7.5183,-7.5276,-7.5087,-7.5447,-7.5461,-7.5473,-7.5646,-7.5676,-7.5702,0,0,0,0,0,-7.508,-7.5094,-7.5189,-7.5134,-7.5143,-7.5092,-7.513,-7.5118,-7.5135,-7.5095,-7.5084,-7.5086,-7.5063,-7.5071,-7.5177,-7.5271,-7.5076,-7.5082,-7.5456,-7.5467,-7.5476,-7.5661,0,0,0,0,0,0,-7.5083,-7.5083,-7.519,-7.519,-7.5077,-7.5083,-7.5081,-7.5114,-7.5097,-7.5088,-7.5057,-7.5044,-7.5068,-7.5073,-7.508,-7.5273,-7.5068,-7.5073,-7.5077,-7.5464,-7.5472,-7.548,0,0,0,0,0,0,-7.5075,-7.5085,-7.519,-7.5122,-7.5114,-7.5075,-7.5074,-7.5154,-7.5098,-7.506,-7.5049,-7.5052,-7.5058,-7.5075,-7.508,-7.5208,-7.5061,-7.5067,-7.507,-7.5073,-7.5471,-7.5477,0,0,0,0,0,0,-7.5078,-7.5086,-7.5121,-7.5115,-7.5108,-7.5108,-7.5144,-7.5199,-7.504,-7.5063,-7.5024,-7.5016,-7.5063,-7.5066,-7.5081,-7.5208,-7.5208,-7.5061,-7.5065,-7.5068,-7.5069,0,0,0,0,0,0,0,-7.508,-7.5043,-7.5187,-7.511,-7.5103,-7.5194,-7.5194,-7.5194,-7.5038,-7.5032,-7.5025,-7.5019,-7.5029,-7.5035,-7.5041,-7.5207,0,0,-7.5061,-7.5063,0,0,0,0,0,0,0,0,-7.5038,-7.5042,-7.5187,-7.5187,-7.5188,-7.5194,-7.5194,-7.5194,-7.5037,-7.5032,-7.5027,-7.5022,-7.5031,-7.5036,-7.5041,0,0,0,0,0,0,0,0,0,0,0,0,0,0,0,-7.5187,-7.5187,0,-7.5194,-7.5194,-7.5194,-7.5036,-7.5032,-7.5028,-7.5024,-7.5032,-7.5036,-7.504,0,0,0,0,0,0,0,0,0,0,0,0,0,0,0,0,0,0,0,0,0,0,0,0,0,0,0,0,0,0,0,0,0,0,0,0,0,0,0,0,0,0,0,0,0,0,0,0,0,0,0,0,0,0,0,0,0,0,0,0,0,0,0,0,0,0,0,0,0]}],[{"header":{"parameterUnit":"kt","parameterCategory":2,"dx":1,"dy":1,"la1":30.253999710083008,"la2":30.299108505249023,"lo1":-89.0895004272461,"lo2":-89.04439544677734,"nx":28,"ny":28,"refTime":"2022-09-27T21:00:00:Z","depth":0,"parameterNumber":2,"parameterNumberName":"V-component_of_WINDS"},"data":[-18.9433,-18.9629,-18.9625,-18.9844,-18.9875,-19.0022,-19.0072,-19.0135,-19.0182,-19.0352,-19.0447,-19.0456,-19.0495,-19.0603,-19.0702,-19.0702,-19.0744,-19.0821,-19.0807,-19.0479,-19.0432,-19.0388,-19.0343,-19.083,-19.0831,-19.1149,-19.1152,-19.1154,-18.9197,-18.9233,-18.9347,-18.9454,-18.9551,-18.9475,-18.955,-18.9635,-18.9766,-18.9824,-18.9917,-19.0064,-19.0176,-19.0188,-19.0293,-19.0379,-19.0346,-19.0408,-19.0401,-19.0408,-19.0057,-19.001,-19.0433,-19.0433,-19.0433,-19.0433,-19.0433,-19.0433,-18.8767,-18.8885,-18.8946,-18.9069,-18.9119,-18.9189,-18.9298,-18.9307,-18.9415,-18.9527,-18.9493,-18.9639,-18.9691,-18.9809,-18.9845,-18.9955,-18.9883,-18.9946,-18.9962,-18.9978,-19.0,-18.9545,-18.9971,-18.997,-18.9969,-18.9968,-18.9967,0,-18.8449,-18.8437,-18.8545,-18.8652,-18.874,-18.8821,-18.8891,-18.8958,-18.8919,-18.9008,-18.9136,-18.9207,-18.9345,-18.946,-18.9554,-18.9576,-18.95,-18.949,-18.9533,-18.9553,-18.9561,-18.956,-18.8989,-18.9477,-18.9472,-18.9469,-18.9467,-18.9465,-18.8015,-18.8152,-18.821,-18.8286,-18.8323,-18.8446,-18.8517,-18.8472,-18.8548,-18.8625,-18.8727,-18.8843,-18.8933,-18.9133,-18.9134,-18.9234,-18.9197,-18.9385,-18.9211,-18.9227,-18.9201,-18.9194,-18.9207,-18.942,-18.9426,-18.943,-18.9434,0,-18.7771,-18.7758,-18.7965,-18.8007,-18.8021,-18.8165,-18.8197,-18.8309,-18.8302,-18.8454,-18.8487,-18.8475,-18.8598,-18.8568,-18.8699,-18.8679,-18.8911,-18.8872,-18.8894,-18.8885,-18.9051,-18.9036,-18.9592,-18.9663,-18.9157,-18.9162,-18.9166,0,-18.7395,-18.7574,-18.7543,-18.7664,-18.7861,-18.7811,-18.8006,-18.802,-18.8064,-18.8183,-18.8093,-18.8206,-18.8149,-18.8257,-18.8227,-18.841,-18.8434,-18.8429,-18.8419,-18.8438,-18.8439,-18.8474,-18.8451,-18.839,-18.8387,-18.8384,-18.8382,0,-18.7015,-18.7206,-18.7403,-18.7443,-18.7502,-18.7594,-18.7622,-18.7669,-18.7737,-18.7818,-18.7861,-18.7958,-18.8011,-18.8087,-18.8049,-18.7932,-18.8271,-18.8102,-18.8266,-18.8267,-18.8341,-18.8337,-18.8839,-18.8379,-18.8378,-18.8377,-18.8376,0,-18.6707,-18.6797,-18.7083,-18.713,-18.7181,-18.7309,-18.7404,-18.7506,-18.7562,-18.7552,-18.7615,-18.7549,-18.7706,-18.7542,-18.7757,-18.7616,-18.7673,-18.7682,-18.7693,-18.7704,-18.7521,-18.7808,-18.8289,-18.8338,-18.7717,-18.7711,-18.7706,0,-18.6277,-18.6562,-18.6521,-18.6792,-18.6919,-18.6811,-18.6951,-18.7003,-18.7002,-18.7106,-18.7102,-18.7219,-18.709,-18.7122,-18.7232,-18.7232,-18.7414,-18.7206,-18.7352,-18.7358,-18.7343,-18.7785,-18.7864,-18.8187,-18.7635,-18.7643,-18.7648,0,-18.5941,-18.6013,-18.6064,-18.6108,-18.6171,-18.6274,-18.6435,-18.6541,-18.6613,-18.6679,-18.6811,-18.6973,-18.6883,-18.6935,-18.689,-18.7007,-18.7289,-18.6892,-18.6893,-18.6966,-18.7596,-18.7672,-18.7726,-18.7233,-18.7241,-18.7248,-18.7592,0,-18.5483,-18.5621,-18.5759,-18.5857,-18.5932,-18.6098,-18.6069,-18.6151,-18.6103,-18.6097,-18.6288,-18.6318,-18.6421,-18.6473,-18.6424,-18.6701,-18.6649,-18.655,-18.6386,-18.6676,-18.6788,-18.6834,-18.6221,-18.6216,-18.6212,-18.6209,0,0,-18.5075,-18.5272,-18.522,-18.5375,-18.5436,-18.5319,-18.55,-18.5543,-18.5634,-18.5677,-18.5586,-18.5819,-18.5846,-18.608,-18.6168,-18.6209,-18.6255,-18.6154,-18.6538,-18.6575,-18.6609,-18.673,-18.6778,-18.6201,-18.6199,-18.6198,-18.6197,0,-18.4902,-18.494,-18.512,-18.5165,-18.5228,-18.5214,-18.5257,-18.5297,-18.5301,-18.5488,-18.5385,-18.5494,-18.568,-18.5723,-18.5769,-18.6126,-18.6039,-18.6159,-18.6363,-18.6496,-18.6539,-18.6576,-18.6704,-18.675,-18.6186,-18.6187,-18.6187,0,-18.4566,-18.4599,-18.4682,-18.4814,-18.4853,-18.4984,-18.4807,-18.4951,-18.5046,-18.4904,-18.509,-18.5102,-18.5155,-18.538,-18.5479,-18.5398,-18.5846,-18.5697,-18.5723,-18.5732,-18.5859,-18.591,-18.5956,-18.5355,-18.5352,-18.535,0,0,-18.4419,-18.4547,-18.4564,-18.4774,-18.4807,-18.4786,-18.4851,-18.4809,-18.4862,-18.4884,-18.4896,-18.4949,-18.5056,-18.5127,-18.5225,-18.5477,-18.5483,-18.5596,-18.5635,-18.5667,-18.5695,-18.583,-18.588,-18.5339,-18.5339,-18.5339,0,0,-18.4347,-18.4378,-18.432,-18.456,-18.4618,-18.4645,-18.4773,-18.4701,-18.4787,-18.4763,-18.4693,-18.4704,-18.4913,-18.4927,-18.4794,-18.5166,-18.5004,-18.5035,-18.5149,-18.5198,-18.5237,-18.5229,-18.4611,0,0,0,0,0,-18.4154,-18.4374,-18.4322,-18.4358,-18.452,-18.4675,-18.4695,-18.4645,-18.4533,-18.4636,-18.4635,-18.4538,-18.4841,-18.4721,-18.4755,-18.4904,-18.5206,-18.523,-18.5252,-18.5458,-18.551,-18.5553,0,0,0,0,0,0,-18.4167,-18.4212,-18.4316,-18.4354,-18.439,-18.4666,-18.4466,-18.4458,-18.4521,-18.45,-18.4541,-18.4539,-18.4496,-18.47,-18.4732,-18.4874,-18.46,-18.5216,-18.5236,-18.5254,-18.5476,-18.5518,-18.5554,0,0,0,0,0,-18.4178,-18.4213,-18.4488,-18.435,-18.4381,-18.4368,-18.4457,-18.4449,-18.4496,-18.4494,-18.4488,-18.4453,-18.4502,-18.4524,-18.4718,-18.4861,-18.4578,-18.459,-18.5229,-18.5244,-18.5259,-18.5496,0,0,0,0,0,0,-18.4186,-18.4205,-18.4493,-18.4501,-18.4263,-18.4352,-18.4364,-18.4442,-18.4484,-18.4482,-18.4401,-18.4384,-18.4508,-18.4525,-18.4543,-18.486,-18.456,-18.4572,-18.458,-18.5241,-18.5253,-18.5264,0,0,0,0,0,0,-18.4186,-18.4213,-18.4497,-18.439,-18.4385,-18.4337,-18.4348,-18.4503,-18.4486,-18.4388,-18.4376,-18.4393,-18.4479,-18.4526,-18.454,-18.4784,-18.4546,-18.4558,-18.4566,-18.4571,-18.5251,-18.526,0,0,0,0,0,0,-18.4196,-18.4219,-18.4388,-18.4384,-18.4379,-18.4458,-18.4472,-18.464,-18.44,-18.4388,-18.4376,-18.4365,-18.4484,-18.4496,-18.4538,-18.4778,-18.4783,-18.4547,-18.4555,-18.456,-18.4564,0,0,0,0,0,0,0,-18.4204,-18.4064,-18.445,-18.4379,-18.4374,-18.457,-18.4572,-18.4574,-18.4397,-18.4388,-18.4379,-18.437,-18.448,-18.4493,-18.4506,-18.4773,0,0,-18.4546,-18.4551,0,0,0,0,0,0,0,0,-18.4053,-18.4061,-18.445,-18.4452,-18.4453,-18.457,-18.4572,-18.4574,-18.4396,-18.4388,-18.4381,-18.4373,-18.4483,-18.4494,-18.4504,0,0,0,0,0,0,0,0,0,0,0,0,0,0,0,-18.445,-18.4451,0,-18.4571,-18.4572,-18.4573,-18.4395,-18.4388,-18.4382,-18.4376,-18.4486,-18.4495,-18.4503,0,0,0,0,0,0,0,0,0,0,0,0,0,0,0,0,0,0,0,0,0,0,0,0,0,0,0,0,0,0,0,0,0,0,0,0,0,0,0,0,0,0,0,0,0,0,0,0,0,0,0,0,0,0,0,0,0,0,0,0,0,0,0,0,0,0,0,0,0]}]]]